Weather History for KFSM - July, 2014

Change the Weather History Date:

Monday, July 28, 2014

  Actual Average Record
Temperature  
Mean Temperature 81 °F 83 °F  
Max Temperature 90 °F 94 °F 107 °F (1986)
Min Temperature 71 °F 72 °F 63 °F (2004)
Cooling Degree Days 16 18  
Month to date cooling degree days 394 484  
Year to date cooling degree days 1110 1113  
Since 1 June cooling degree days 832 869  
Growing Degree Days 30 (Base 50)    
Moisture  
Dew Point 61 °F    
Average Humidity 57    
Maximum Humidity 79    
Minimum Humidity 34    
Precipitation  
Precipitation 0.00 in 0.10 in 1.26 in (1906)
Month to date precipitation 1.72 2.99  
Year to date precipitation 20.91 26.46  
Sea Level Pressure  
Sea Level Pressure 30.09 in    
Wind  
Wind Speed 7 mph (North)    
Max Wind Speed 17 mph    
Max Gust Speed 21 mph    
Visibility 10 miles    
Events      
T = Trace of Precipitation, MM = Missing Value Source: NWS Daily Summary

Daily Weather History Graph

Daily Weather History Graph

Search for Another Location

Airport or City:

Trip Planner

Search our weather history database for the weather conditions in past years. The results will help you decide how hot, cold, wet, or windy it might be!

Date:

Astronomy

Jul. 28, 2014 Rise Set
Actual Time 6:23 AM CDT 8:24 PM CDT
Civil Twilight 5:54 AM CDT 8:52 PM CDT
Nautical Twilight 5:20 AM CDT 9:26 PM CDT
Astronomical Twilight 4:43 AM CDT 10:03 PM CDT
Moon 7:59 AM CDT (7/28) 9:13 PM CDT (7/28)
Length of Visible Light 14h 57m
Length of Day
14h 01m
Waxing Crescent, 3% of the Moon is Illuminated
Jul 28
Waxing Crescent
Aug 3
First Quarter
Aug 10
Full
Aug 17
Last Quarter
Aug 25
New

Hourly Weather History & Observations

Time (CDT) Temp. Heat Index Dew Point Humidity Pressure Visibility Wind Dir Wind Speed Gust Speed Precip Events Conditions
12:53 AM 80.1 °F 81.2 °F 62.1 °F 54% 30.03 in 10.0 mi NNE 4.6 mph - N/A   Clear
1:53 AM 75.9 °F - 62.1 °F 62% 30.03 in 10.0 mi Calm Calm - N/A   Clear
2:53 AM 75.0 °F - 64.9 °F 71% 30.04 in 10.0 mi Calm Calm - N/A   Partly Cloudy
3:53 AM 73.9 °F - 63.0 °F 68% 30.06 in 10.0 mi Calm Calm - N/A   Clear
4:53 AM 75.0 °F - 64.9 °F 71% 30.08 in 10.0 mi North 3.5 mph - N/A   Partly Cloudy
5:53 AM 73.0 °F - 64.9 °F 76% 30.09 in 10.0 mi NNE 3.5 mph - N/A   Clear
6:53 AM 72.0 °F - 64.0 °F 76% 30.10 in 10.0 mi Calm Calm - N/A   Clear
7:53 AM 77.0 °F - 64.0 °F 64% 30.12 in 10.0 mi NE 5.8 mph - N/A   Clear
8:53 AM 78.8 °F - 62.6 °F 57% 30.16 in 10.0 mi NE 9.2 mph - N/A   Clear
9:53 AM 81.0 °F 81.9 °F 62.1 °F 52% 30.16 in 10.0 mi ENE 9.2 mph - N/A   Clear
10:53 AM 82.9 °F 82.8 °F 59.0 °F 44% 30.16 in 10.0 mi North 10.4 mph 17.3 mph N/A   Clear
11:53 AM 84.0 °F 83.8 °F 59.0 °F 43% 30.15 in 10.0 mi Variable 4.6 mph - N/A   Clear
12:53 PM 87.8 °F 86.5 °F 57.2 °F 35% 30.15 in 10.0 mi WNW 9.2 mph - N/A   Clear
1:53 PM 87.8 °F 86.5 °F 57.2 °F 35% 30.13 in 10.0 mi Variable 3.5 mph 17.3 mph N/A   Clear
2:53 PM 89.1 °F 87.7 °F 57.0 °F 34% 30.10 in 10.0 mi NNW 13.8 mph - N/A   Clear
3:53 PM 88.0 °F 86.7 °F 57.0 °F 35% 30.09 in 10.0 mi NW 13.8 mph - N/A   Clear
4:53 PM 87.1 °F 85.7 °F 55.9 °F 35% 30.08 in 10.0 mi NNW 12.7 mph - N/A   Clear
5:53 PM 87.1 °F 86.1 °F 57.9 °F 37% 30.06 in 10.0 mi NNW 12.7 mph - N/A   Clear
6:53 PM 86.0 °F 85.4 °F 59.0 °F 40% 30.05 in 10.0 mi NNW 13.8 mph - N/A   Clear
7:53 PM 84.0 °F 83.8 °F 59.0 °F 43% 30.05 in 10.0 mi NNW 10.4 mph - N/A   Clear
8:53 PM 81.0 °F 81.6 °F 60.1 °F 49% 30.07 in 10.0 mi NNW 5.8 mph - N/A   Clear
9:53 PM 79.0 °F - 61.0 °F 54% 30.09 in 10.0 mi NNW 3.5 mph - N/A   Clear
10:53 PM 77.0 °F - 61.0 °F 58% 30.09 in 10.0 mi NNW 5.8 mph - N/A   Clear
11:53 PM 75.0 °F - 61.0 °F 62% 30.09 in 10.0 mi Calm Calm - N/A   Clear